Lid_Strength_Index
1 1 2 2 2 2 1 1 1 1 1 1 1 1 1 1 0 1 3 1 4 6 6 5 4 7 6 7 10 8 9 9 9 12 13 15 15 13 13 11 12 14 15 15 15 16 18 10 10 13 11 10 10 10
0 1 2 2 2 2 1 1 0 0 1 1 1 1 1 1 0 -0 4 1 1 4 6 3 3 3 3 4 7 7 9 9 9 12 12 12 13 12 11 16 9 14 12 14 13 14 11 9 9 8 8 11 11 10
1 2 2 2 2 1 1 1 1 1 1 1 1 1 1 1 0 0 3 2 2 5 5 5 5 3 2 2 3 9 7 6 7 7 9 10 13 10 14 13 12 10 8 13 13 12 11 9 8 8 8 9 9 9
1 2 3 3 3 3 2 2 3 3 2 2 1 1 1 1 1 1 2 2 2 4 9 7 2 5 3 3 3 4 5 5 6 6 9 10 11 8 12 11 11 10 9 11 12 11 10 9 9 8 8 7 8 9
3 4 3 4 4 3 3 3 1 2 2 2 2 2 1 1 1 1 1 1 0 4 9 8 5 4 3 3 3 4 6 7 8 9 10 11 9 10 10 10 11 9 11 13 14 11 11 10 9 8 9 10 9 9
3 4 4 4 4 3 2 1 2 3 4 3 2 2 2 1 2 3 6 2 1 3 7 10 5 5 4 3 4 5 6 7 8 9 10 9 7 9 13 14 9 8 7 8 10 9 10 9 8 9 10 10 9 10
3 4 4 4 3 2 2 1 2 3 4 4 3 3 3 3 4 7 8 4 2 3 8 10 10 6 4 5 6 7 6 7 8 9 10 10 9 8 13 14 8 8 8 9 9 9 10 10 10 8 9 9 9 10
4 4 4 4 4 3 2 2 2 3 3 3 3 3 3 3 3 5 3 2 2 5 6 11 10 9 6 10 10 7 9 8 9 9 10 10 9 10 14 9 8 8 8 8 9 7 9 8 8 9 10 10 11 12
4 4 4 4 3 3 3 3 2 2 3 3 3 3 4 5 7 6 4 2 2 5 10 11 13 14 7 9 9 9 8 12 9 11 11 10 13 14 10 9 9 8 8 8 7 8 9 9 10 11 11 11 12 13
5 4 4 4 3 3 3 3 3 3 2 2 4 8 10 7 4 3 4 7 6 6 7 11 10 12 9 10 11 11 10 12 14 12 10 13 12 8 7 8 8 7 7 7 9 10 10 11 11 12 12 12 12 13
3 3 3 3 3 3 3 3 3 4 3 6 9 10 6 5 5 7 13 12 11 12 10 10 9 10 7 11 12 10 12 12 14 13 13 14 14 11 7 8 7 6 6 7 7 9 9 10 11 11 12 12 13 13
3 3 3 4 4 4 4 4 3 5 6 6 7 5 6 7 10 12 15 13 14 13 11 11 10 9 8 7 11 11 13 13 15 11 14 16 12 9 8 8 8 7 6 7 7 8 9 9 10 11 12 12 13 14
3 4 4 4 4 4 4 4 4 4 4 5 8 11 10 12 16 17 18 15 16 13 10 10 11 10 9 9 12 12 15 15 11 16 16 13 11 9 9 8 8 8 8 8 8 8 9 10 11 12 15 15 16 17
3 4 4 4 4 4 4 4 3 4 6 10 12 16 14 16 14 13 12 13 12 10 9 9 11 11 11 13 12 15 13 12 16 18 14 11 10 10 9 9 9 12 10 10 11 12 13 14 17 17 16 17 17 18
4 4 4 4 4 4 4 3 3 4 8 12 12 16 14 12 11 12 12 10 9 8 10 10 11 10 13 13 12 13 14 17 15 15 11 10 10 11 10 10 11 14 14 14 15 15 16 16 16 18 19 19 19 20
4 4 5 4 3 3 3 3 5 6 9 10 11 13 13 13 11 9 10 9 9 10 9 9 12 14 14 13 14 15 14 16 13 11 10 9 11 10 10 10 10 12 13 15 16 16 17 17 17 18 18 19 21 20
4 7 4 3 3 3 3 5 7 9 10 11 11 10 12 10 10 10 9 10 9 10 13 11 15 14 11 13 13 12 13 12 11 11 10 9 10 10 10 10 11 13 13 15 17 16 16 15 15 16 18 19 16 17
7 5 4 3 4 4 6 6 9 10 12 10 11 11 10 10 10 10 9 10 10 10 11 12 10 12 16 14 15 12 11 11 10 10 9 9 10 10 10 10 10 11 13 15 15 15 15 15 15 15 15 15 14 14
5 5 3 3 4 6 9 9 8 12 11 10 10 9 10 10 10 9 9 8 7 7 10 11 12 13 12 10 10 11 11 11 12 11 10 10 10 10 10 10 10 11 14 14 13 14 14 13 14 13 14 14 14 14
4 4 4 4 4 8 10 10 7 10 12 11 9 10 10 10 10 9 9 10 9 10 10 10 10 10 10 10 9 9 10 10 11 12 12 11 10 10 11 11 11 12 13 13 12 13 13 13 12 12 13 14 14 15
5 6 4 5 7 7 9 10 11 10 10 11 9 10 10 10 11 11 10 9 10 10 10 10 9 9 8 8 8 8 10 10 11 11 11 12 11 10 11 10 12 12 13 13 14 14 15 14 12 12 13 15 16 17
6 4 7 6 9 9 10 9 10 10 10 10 11 9 11 13 13 12 9 10 10 9 9 11 11 11 10 9 9 9 8 8 8 10 10 10 11 11 11 11 13 15 14 15 13 14 14 12 12 13 14 16 18 18
5 6 8 8 13 13 14 9 12 11 14 12 11 12 13 13 11 9 10 10 10 9 8 8 8 9 9 9 9 9 9 9 9 9 10 9 10 10 10 10 11 11 12 12 11 12 12 12 13 14 16 17 19 21
5 9 13 13 12 16 12 13 10 11 11 12 13 14 13 13 11 12 11 11 10 9 9 9 9 10 10 9 11 11 9 9 9 9 9 9 10 11 10 10 10 10 11 10 11 12 12 13 14 15 16 16 17 18
14 14 13 16 12 15 16 15 14 13 16 13 14 14 14 11 14 13 12 12 11 11 10 9 9 9 10 10 10 12 9 8 9 10 10 9 10 10 10 10 11 10 10 11 12 12 13 14 14 16 16 17 18 19
17 15 15 14 14 14 14 17 16 15 14 16 15 12 11 13 16 14 12 12 11 11 10 10 10 9 9 9 10 11 11 9 9 10 10 9 9 11 13 14 15 13 11 11 13 14 15 15 18 19 19 19 20 21
18 16 11 9 10 10 14 13 11 14 16 16 13 12 13 18 16 13 12 11 11 11 10 9 9 9 10 11 11 12 11 10 11 11 11 12 12 11 12 14 15 15 12 12 13 13 16 18 18 19 20 22 23 24
12 11 17 14 13 11 15 15 16 16 14 11 12 16 17 15 14 12 12 11 10 10 10 9 9 9 11 11 12 12 13 13 13 13 13 13 13 13 14 14 13 13 13 13 13 14 15 17 18 20 22 24 26 26
13 10 13 19 16 14 14 14 14 12 11 10 12 14 12 11 11 11 11 10 9 9 10 11 11 9 10 10 10 11 15 15 16 18 19 18 19 16 15 15 16 16 16 16 15 16 18 19 21 22 23 24 25 26
13 10 13 16 18 16 11 9 10 9 11 10 10 11 11 11 11 10 9 9 10 9 8 9 10 10 11 11 12 11 11 11 14 15 17 17 18 16 16 17 17 18 19 20 20 20 19 21 21 23 24 25 27 29
9 9 13 12 14 10 11 9 9 9 9 9 10 10 10 11 11 11 12 12 11 9 9 10 9 9 10 11 11 14 16 13 16 14 13 14 15 16 16 17 18 19 20 21 21 22 22 23 23 25 26 27 28 31
10 10 12 14 12 10 9 10 10 10 9 10 10 9 10 10 12 16 16 14 12 12 11 9 10 12 12 12 12 13 13 13 13 13 14 14 14 15 16 17 17 18 19 20 20 21 22 24 26 27 29 30 32 34
10 10 10 11 11 11 11 11 11 13 12 15 12 12 11 14 17 17 16 14 15 14 14 14 13 14 14 14 14 14 13 13 13 13 14 15 16 16 16 17 18 19 20 21 22 23 24 25 27 28 30 32 35 35